Stations météo

réclame
Mon MeteoGroup
Brüssel, Belgique (6451): Température de l'air & dewpoint: 18.11.2017 15:00:00 - 24.11.2017 15:00:00 (CET)Brüssel, Belgique (6451): Vitesse du vent & gusts: 18.11.2017 15:00:00 - 24.11.2017 15:00:00 (CET)Brüssel, Belgique (6451): Direction du vent: 18.11.2017 15:00:00 - 24.11.2017 15:00:00 (CET)Brüssel, Belgique (6451): reduced air pressure: 18.11.2017 15:00:00 - 24.11.2017 15:00:00 (CET)Brüssel, Belgique (6451): visibility: 18.11.2017 15:00:00 - 24.11.2017 15:00:00 (CET)
Date & Time tt [°C] td [°C] ff [km/h] ff [knt] fx [km/h] fx [knt] dd ppp [hPa] vv [km]
24.11.2017 15:00:00 9,4 5,4 8 4 18 10 WSW 1011,9 10
24.11.2017 14:00:00 9,5 5,2 11 6 18 10 W 1011,9 10
24.11.2017 13:00:00 9,1 5,7 11 6 - - SW 1011,7 10
24.11.2017 12:00:00 8,4 6,3 11 6 18 10 W 1011,7 10
24.11.2017 11:00:00 8,0 6,7 8 4 14 8 W 1010,9 10
24.11.2017 10:00:00 7,4 6,5 5 3 - - W 1010,0 9
24.11.2017 09:00:00 7,3 6,1 9 5 14 8 W 1009,3 10
24.11.2017 08:00:00 6,9 6,0 4 2 14 8 - 1008,2 10
24.11.2017 07:00:00 6,9 6,1 9 5 - - NW 1007,2 9
24.11.2017 06:00:00 6,9 6,3 0 0 22 12 N 1006,0 9
24.11.2017 05:00:00 7,7 6,9 8 4 11 6 WNW 1007,0 5
24.11.2017 04:00:00 7,8 6,9 4 2 - - SSW 1006,6 5
24.11.2017 03:00:00 8,2 7,4 4 2 11 6 S 1007,8 8
24.11.2017 02:00:00 8,7 7,2 9 5 14 8 S 1008,3 9
24.11.2017 01:00:00 8,6 7,0 9 5 - - S 1008,9 10
24.11.2017 00:00:00 9,3 7,0 11 6 18 10 SSW 1009,1 10
23.11.2017 23:00:00 10,2 6,8 11 6 25 14 SSW 1009,6 10
23.11.2017 22:00:00 10,3 6,7 13 7 - - SW 1009,7 10
23.11.2017 21:00:00 9,6 6,2 11 6 22 12 SW 1009,3 10
23.11.2017 20:00:00 8,8 5,6 13 7 22 12 SSW 1008,9 10
23.11.2017 19:00:00 9,4 5,1 15 8 - - SW 1008,3 10
23.11.2017 18:00:00 10,7 5,9 15 8 32 18 WSW 1007,7 10
23.11.2017 17:00:00 11,5 8,1 15 8 36 19 WSW 1006,5 10
23.11.2017 16:00:00 11,9 8,9 18 10 - - W 1005,6 10
23.11.2017 15:00:00 12,0 10,4 21 11 58 31 WSW 1004,3 10
23.11.2017 14:00:00 14,9 9,8 35 19 58 31 SW 1002,5 10
23.11.2017 13:00:00 14,4 9,4 35 19 - - SW 1002,1 10
23.11.2017 12:00:00 14,3 9,3 31 17 58 31 SW 1001,5 10
23.11.2017 11:00:00 13,9 8,1 31 17 65 35 SW 1000,8 10
23.11.2017 10:00:00 13,4 7,4 42 23 - - SSW 999,5 10
23.11.2017 09:00:00 13,5 6,7 46 25 72 39 SSW 998,1 10
23.11.2017 08:00:00 13,1 5,6 34 18 61 33 SSW 997,5 10
23.11.2017 07:00:00 12,4 4,5 37 20 - - S 996,9 10
23.11.2017 06:00:00 12,6 4,7 37 20 54 29 S 997,6 10
23.11.2017 05:00:00 12,5 3,9 34 18 58 31 S 998,1 10
23.11.2017 04:00:00 12,2 3,4 29 16 - - S 998,7 10
23.11.2017 03:00:00 12,4 3,3 31 17 50 27 SSW 999,1 10
23.11.2017 02:00:00 11,9 3,3 29 16 50 27 S 999,1 10
23.11.2017 01:00:00 11,9 3,0 28 15 - - SSW 1000,0 10
23.11.2017 00:00:00 12,4 2,8 26 14 47 25 SSW 1000,8 10
22.11.2017 23:00:00 12,1 3,4 29 16 43 23 S 1001,2 10
22.11.2017 22:00:00 10,9 3,3 26 14 - - S 1001,7 10
22.11.2017 21:00:00 10,5 3,5 22 12 40 21 S 1002,0 10
22.11.2017 20:00:00 10,3 4,3 26 14 40 21 S 1002,7 10
22.11.2017 19:00:00 10,0 4,4 24 13 - - S 1003,4 10
22.11.2017 18:00:00 10,1 4,9 22 12 36 19 S 1003,8 10
22.11.2017 17:00:00 10,5 4,5 21 11 36 19 S 1004,6 10
22.11.2017 16:00:00 11,9 4,7 21 11 - - SSW 1005,5 10
22.11.2017 15:00:00 12,8 6,5 15 8 32 18 S 1005,9 10
22.11.2017 14:00:00 12,4 6,6 21 11 36 19 SSW 1006,6 10
22.11.2017 13:00:00 12,1 7,1 21 11 - - S 1007,1 10
22.11.2017 12:00:00 12,1 6,9 21 11 43 23 SSW 1007,9 10
22.11.2017 11:00:00 10,6 6,9 22 12 40 21 SSW 1008,2 10
22.11.2017 10:00:00 9,6 6,8 26 14 - - SSW 1008,5 10
22.11.2017 09:00:00 9,9 7,2 24 13 43 23 SW 1008,4 10
22.11.2017 08:00:00 9,9 7,3 22 12 43 23 SSW 1008,2 10
22.11.2017 07:00:00 10,4 7,1 22 12 - - SSW 1008,0 10
22.11.2017 06:00:00 10,3 7,3 21 11 40 21 SSW 1008,4 10
22.11.2017 05:00:00 10,3 7,3 22 12 36 19 SSW 1008,5 10
22.11.2017 04:00:00 10,3 7,3 24 13 - - SSW 1008,9 10
22.11.2017 03:00:00 10,3 7,0 22 12 40 21 SSW 1009,4 10
22.11.2017 02:00:00 10,3 7,3 22 12 36 19 SSW 1009,7 10
22.11.2017 01:00:00 10,1 7,2 22 12 - - SSW 1010,4 10
22.11.2017 00:00:00 9,9 7,1 24 13 36 19 SW 1010,6 10
21.11.2017 23:00:00 9,9 7,1 22 12 40 21 SW 1010,6 10
21.11.2017 22:00:00 9,8 7,0 22 12 - - SW 1011,1 10
21.11.2017 21:00:00 9,8 7,0 24 13 36 19 SW 1011,5 10
21.11.2017 20:00:00 9,9 7,0 24 13 40 21 SSW 1011,4 10
21.11.2017 19:00:00 9,7 7,2 22 12 - - SSW 1012,3 10
21.11.2017 18:00:00 9,6 7,4 18 10 29 16 SSW 1012,4 10
21.11.2017 17:00:00 9,9 7,5 18 10 36 19 SSW 1012,6 10
21.11.2017 16:00:00 10,2 7,6 22 12 - - SW 1012,9 10
21.11.2017 15:00:00 10,4 7,8 24 13 40 21 SW 1013,1 10
21.11.2017 14:00:00 10,4 8,3 24 13 43 23 SW 1013,3 10
21.11.2017 13:00:00 10,3 8,5 22 12 - - SW 1013,5 10
21.11.2017 12:00:00 10,1 8,8 24 13 43 23 WSW 1014,1 8
21.11.2017 11:00:00 9,9 9,0 28 15 43 23 SW 1014,0 6
21.11.2017 10:00:00 10,0 9,3 26 14 - - SW 1013,7 2,7
21.11.2017 09:00:00 10,1 9,4 22 12 36 19 SW 1013,2 2,5
21.11.2017 08:00:00 10,3 9,7 18 10 25 14 SW 1013,2 2,3
21.11.2017 07:00:00 10,3 9,7 16 9 - - SW 1013,1 2,5
21.11.2017 06:00:00 10,6 10,0 16 9 29 16 SW 1013,0 2,8
21.11.2017 05:00:00 10,6 10,1 15 8 25 14 SW 1013,1 2,5
21.11.2017 04:00:00 10,4 9,8 15 8 - - SW 1013,3 2,5
21.11.2017 03:00:00 10,3 9,6 15 8 29 16 SW 1013,7 7
21.11.2017 02:00:00 10,2 9,5 15 8 29 16 SW 1013,7 10
21.11.2017 01:00:00 10,3 9,6 21 11 - - SW 1013,8 10
21.11.2017 00:00:00 10,2 9,4 21 11 32 18 WSW 1013,6 10
20.11.2017 23:00:00 9,8 9,0 22 12 32 18 WSW 1013,4 10
20.11.2017 22:00:00 9,6 8,7 22 12 - - WSW 1013,6 10
20.11.2017 21:00:00 9,6 8,7 24 13 43 23 WSW 1013,8 10
20.11.2017 20:00:00 9,5 8,6 26 14 47 25 WSW 1013,3 7
20.11.2017 19:00:00 9,3 8,5 28 15 - - SW 1013,2 3,5
20.11.2017 18:00:00 9,3 8,4 31 17 47 25 SW 1013,3 6
20.11.2017 17:00:00 9,0 8,1 28 15 43 23 SW 1014,0 3,8
20.11.2017 16:00:00 8,4 7,5 26 14 - - SW 1014,3 6
20.11.2017 15:00:00 7,6 6,8 24 13 43 23 SW 1015,0 2,8
20.11.2017 14:00:00 7,0 6,2 24 13 36 19 SW 1016,1 4,5
20.11.2017 13:00:00 6,2 5,3 22 12 - - SW 1017,1 5
20.11.2017 12:00:00 5,7 4,7 22 12 32 18 SSW 1017,9 3,5
20.11.2017 11:00:00 5,2 3,8 21 11 29 16 SSW 1018,9 4,8
20.11.2017 10:00:00 4,1 2,6 11 6 - - SSW 1019,7 10
20.11.2017 09:00:00 3,6 1,9 13 7 18 10 S 1020,4 10
20.11.2017 08:00:00 3,8 1,3 13 7 18 10 SSW 1021,4 10
20.11.2017 07:00:00 3,6 1,0 11 6 - - SSW 1021,5 10
20.11.2017 06:00:00 3,2 1,1 11 6 22 12 SSW 1021,4 10
20.11.2017 05:00:00 3,3 1,3 15 8 22 12 SSW 1021,9 10
20.11.2017 04:00:00 3,2 1,2 13 7 - - SW 1022,3 10
20.11.2017 03:00:00 3,1 1,3 11 6 14 8 SW 1022,7 10
20.11.2017 02:00:00 3,0 1,3 11 6 18 10 SW 1023,2 10
20.11.2017 01:00:00 3,5 1,7 15 8 - - SW 1023,7 10
20.11.2017 00:00:00 2,8 1,3 13 7 18 10 SW 1024,0 10
19.11.2017 23:00:00 2,9 1,5 13 7 18 10 SW 1023,9 10
19.11.2017 22:00:00 3,4 1,8 13 7 - - SW 1023,9 10
19.11.2017 21:00:00 4,0 2,0 13 7 22 12 WSW 1023,3 10
19.11.2017 20:00:00 4,7 2,2 15 8 22 12 WSW 1023,2 10
19.11.2017 19:00:00 4,9 2,4 11 6 - - W 1022,9 10
19.11.2017 18:00:00 5,1 2,2 9 5 22 12 W 1022,5 10
19.11.2017 17:00:00 6,3 2,3 15 8 29 16 WNW 1022,1 10
19.11.2017 16:00:00 7,7 3,5 13 7 - - W 1021,7 10
19.11.2017 15:00:00 7,1 4,6 9 5 14 8 W 1021,5 10
19.11.2017 14:00:00 5,9 4,0 8 4 22 12 NW 1021,6 10
19.11.2017 13:00:00 7,3 3,5 15 8 - - W 1021,5 10
19.11.2017 12:00:00 6,1 2,8 18 10 25 14 W 1021,2 10
19.11.2017 11:00:00 5,8 1,3 16 9 25 14 W 1021,0 10
19.11.2017 10:00:00 4,1 1,0 8 4 - - NNW 1020,6 10
19.11.2017 09:00:00 4,2 0,3 13 7 25 14 W 1019,7 10
19.11.2017 08:00:00 3,8 0,2 13 7 22 12 W 1019,3 10
19.11.2017 07:00:00 3,6 0,6 13 7 - - W 1018,9 10
19.11.2017 06:00:00 3,9 -0,3 15 8 25 14 W 1018,6 10
19.11.2017 05:00:00 4,9 3,1 15 8 25 14 WNW 1018,3 10
19.11.2017 04:00:00 4,4 2,6 13 7 - - W 1018,0 10
19.11.2017 03:00:00 5,1 3,3 15 8 25 14 WNW 1017,8 10
19.11.2017 02:00:00 5,7 3,9 15 8 22 12 WNW 1017,5 10
19.11.2017 01:00:00 6,7 4,9 13 7 - - W 1017,7 10
19.11.2017 00:00:00 7,3 5,2 18 10 29 16 W 1017,4 10
18.11.2017 23:00:00 7,0 5,2 18 10 29 16 W 1017,7 10
18.11.2017 22:00:00 7,0 5,3 16 9 - - WSW 1017,8 10
18.11.2017 21:00:00 7,0 5,3 13 7 22 12 WSW 1018,2 10
18.11.2017 20:00:00 7,3 5,7 15 8 25 14 WSW 1018,7 10
18.11.2017 19:00:00 7,4 5,4 16 9 - - WSW 1019,2 10
18.11.2017 18:00:00 7,6 5,1 21 11 32 18 W 1019,4 6
18.11.2017 17:00:00 7,7 4,1 15 8 29 16 WSW 1019,7 10
18.11.2017 16:00:00 7,5 3,3 18 10 - - WSW 1020,0 10
18.11.2017 15:00:00 7,4 3,0 21 11 40 21 WSW 1020,4 10

tt = Température de l'air
td = dewpoint
ff = Vitesse du vent
fx = gusts
dd = Direction du vent
ppp = reduced air pressure
vv = visibility

stations d'obs. à proximité